[[{"header":{"parameterUnit":"m.s-1","parameterCategory":1,"la1":30.2991,"la2":30.254,"lo1":-89.0895,"lo2":-89.0444,"dy":0.0017,"dx":0.0017,"nx":28,"ny":28,"refTime":"2023-10-23T03:00:00:Z","depth":0,"parameterNumber":2,"parameterNumberName":"U-component_of_WINDS"},"data":[0,0,0,0,0,0,0,0,0,0,0,0,0,0,0,0,0,0,0,0,0,0,0,0,0,0,0,0,0,0,0,0,0,0,0,0,0,0,0,0,0,0,0,0,0,0,0,0,0,0,0,0,0,0,0,0,0,0,-2.5869,-2.5869,0,-2.5832,-2.5831,-2.5831,-2.5778,-2.5777,-2.5776,-2.5775,-2.5736,-2.5735,-2.5735,0,0,0,0,0,0,0,0,0,0,0,0,0,-2.5897,-2.5897,-2.5869,-2.5869,-2.5869,-2.5832,-2.5831,-2.5831,-2.5778,-2.5777,-2.5776,-2.5775,-2.5736,-2.5735,-2.5735,0,0,0,0,0,0,0,0,0,0,0,0,0,-2.5875,-2.5897,-2.587,-2.5838,-2.5835,-2.5832,-2.5831,-2.5831,-2.5778,-2.5777,-2.5776,-2.5774,-2.5736,-2.5735,-2.5735,-2.576,0,0,-2.5734,-2.5734,0,0,0,0,0,0,0,0,-2.5876,-2.5874,-2.5843,-2.584,-2.5836,-2.5808,-2.5827,-2.5807,-2.5779,-2.58,-2.5775,-2.5774,-2.5761,-2.5758,-2.5754,-2.5758,-2.5757,-2.5734,-2.5734,-2.5734,-2.5734,0,0,0,0,0,0,0,-2.5878,-2.5875,-2.5854,-2.5843,-2.5839,-2.5826,-2.5821,-2.5823,-2.5788,-2.5798,-2.5794,-2.579,-2.5759,-2.5755,-2.5753,-2.5756,-2.5734,-2.5734,-2.5734,-2.5733,-2.5783,-2.5784,0,0,0,0,0,0,-2.5884,-2.5877,-2.5856,-2.5853,-2.5854,-2.5827,-2.5821,-2.5819,-2.5788,-2.5782,-2.5791,-2.5788,-2.5756,-2.5753,-2.5751,-2.578,-2.5734,-2.5733,-2.5733,-2.5781,-2.5783,-2.5785,0,0,0,0,0,0,-2.5885,-2.5883,-2.5857,-2.5864,-2.586,-2.5828,-2.5825,-2.5819,-2.5814,-2.5783,-2.5777,-2.5793,-2.5755,-2.5752,-2.5759,-2.5778,-2.5733,-2.5733,-2.5779,-2.5782,-2.5784,-2.5837,0,0,0,0,0,0,-2.5886,-2.5883,-2.5892,-2.5865,-2.586,-2.5865,-2.5826,-2.5819,-2.5814,-2.5809,-2.5783,-2.5778,-2.5753,-2.576,-2.5759,-2.5776,-2.5733,-2.5778,-2.578,-2.5783,-2.5833,-2.5841,-2.5847,0,0,0,0,0,-2.5887,-2.5907,-2.5892,-2.589,-2.5869,-2.5866,-2.5863,-2.5835,-2.5816,-2.5824,-2.5805,-2.5779,-2.5777,-2.5761,-2.5759,-2.5777,-2.5776,-2.578,-2.5783,-2.583,-2.5839,-2.5847,0,0,0,0,0,0,-2.5935,-2.5903,-2.5886,-2.5897,-2.5885,-2.5857,-2.5866,-2.5845,-2.5837,-2.5833,-2.5798,-2.5793,-2.5805,-2.5792,-2.5776,-2.5802,-2.5773,-2.5776,-2.5809,-2.5818,-2.5824,-2.5826,-2.5732,0,0,0,0,0,-2.5947,-2.5947,-2.5919,-2.5932,-2.5927,-2.5899,-2.5896,-2.5876,-2.5861,-2.5856,-2.5837,-2.5824,-2.5821,-2.5819,-2.5814,-2.5833,-2.5827,-2.5845,-2.5852,-2.5857,-2.586,-2.5871,-2.5879,-2.5796,-2.5796,-2.5796,0,0,-2.5971,-2.5954,-2.5955,-2.5941,-2.5929,-2.5931,-2.5894,-2.5896,-2.5897,-2.5856,-2.5861,-2.5849,-2.5832,-2.5846,-2.5851,-2.5835,-2.5882,-2.5862,-2.5866,-2.5865,-2.5875,-2.5883,-2.589,-2.5798,-2.5798,-2.5797,0,0,-2.6015,-2.6002,-2.6013,-2.6003,-2.5986,-2.5968,-2.5971,-2.5948,-2.5938,-2.5944,-2.5914,-2.5916,-2.591,-2.59,-2.5895,-2.5943,-2.5918,-2.5943,-2.5977,-2.5989,-2.5995,-2.6001,-2.6019,-2.6025,-2.5946,-2.5946,-2.5946,0,-2.6047,-2.6048,-2.602,-2.6026,-2.6021,-2.5987,-2.5998,-2.599,-2.5972,-2.5971,-2.5954,-2.595,-2.5936,-2.5948,-2.5961,-2.5957,-2.596,-2.5943,-2.5997,-2.6002,-2.6007,-2.6023,-2.603,-2.5949,-2.5948,-2.5948,-2.5948,0,-2.6088,-2.609,-2.61,-2.6086,-2.6084,-2.6092,-2.6067,-2.6068,-2.605,-2.6035,-2.6044,-2.6027,-2.602,-2.6022,-2.6003,-2.6033,-2.6024,-2.6003,-2.5972,-2.6018,-2.6033,-2.6039,-2.5953,-2.5952,-2.5951,-2.595,0,0,-2.6155,-2.6131,-2.6135,-2.613,-2.6112,-2.6113,-2.6122,-2.6116,-2.6118,-2.6109,-2.6116,-2.6115,-2.6097,-2.6091,-2.6072,-2.6082,-2.6123,-2.606,-2.6059,-2.6072,-2.6157,-2.6171,-2.6179,-2.6109,-2.611,-2.6111,-2.6158,0,-2.6195,-2.6208,-2.6186,-2.6204,-2.6206,-2.6177,-2.6185,-2.6176,-2.6163,-2.6164,-2.615,-2.615,-2.6126,-2.6122,-2.6132,-2.6116,-2.6139,-2.6113,-2.6115,-2.6115,-2.6117,-2.6187,-2.6201,-2.6246,-2.6164,-2.6165,-2.6165,0,-2.6242,-2.6238,-2.6256,-2.6242,-2.6242,-2.6249,-2.6244,-2.6245,-2.6236,-2.6226,-2.6223,-2.6202,-2.6211,-2.6184,-2.6197,-2.6179,-2.618,-2.6173,-2.6174,-2.6171,-2.6141,-2.6185,-2.6259,-2.6266,-2.6174,-2.6173,-2.6173,0,-2.6289,-2.6289,-2.63,-2.6297,-2.628,-2.6286,-2.6279,-2.6269,-2.6268,-2.6265,-2.6264,-2.6262,-2.626,-2.6259,-2.6239,-2.6222,-2.6255,-2.6226,-2.6248,-2.6248,-2.6253,-2.6252,-2.6328,-2.6257,-2.6256,-2.6256,-2.6256,0,-2.6335,-2.6347,-2.6322,-2.6328,-2.6343,-2.632,-2.6335,-2.6326,-2.6318,-2.6323,-2.6299,-2.6304,-2.6278,-2.6282,-2.6267,-2.6281,-2.628,-2.6273,-2.6269,-2.6274,-2.6275,-2.6272,-2.6268,-2.6258,-2.6258,-2.6257,-2.6257,0,-2.6387,-2.6371,-2.6382,-2.6367,-2.6364,-2.6375,-2.6363,-2.6369,-2.6358,-2.6365,-2.6366,-2.6347,-2.6351,-2.6332,-2.6332,-2.6322,-2.6343,-2.6334,-2.6346,-2.6342,-2.6365,-2.6363,-2.6439,-2.6448,-2.6373,-2.6373,-2.6374,0,-2.6416,-2.6425,-2.6413,-2.6416,-2.6411,-2.6415,-2.6416,-2.6396,-2.6397,-2.6391,-2.6399,-2.6401,-2.6401,-2.6409,-2.6395,-2.6396,-2.6386,-2.6413,-2.6386,-2.6392,-2.6386,-2.6385,-2.6387,-2.6418,-2.6419,-2.642,-2.642,0,-2.6469,-2.6462,-2.6464,-2.6464,-2.6466,-2.6465,-2.6462,-2.6466,-2.6445,-2.6449,-2.6453,-2.6454,-2.6456,-2.6459,-2.6458,-2.6452,-2.6433,-2.643,-2.6435,-2.6439,-2.6446,-2.6443,-2.636,-2.6427,-2.6426,-2.6426,-2.6426,-2.6425,-2.651,-2.6518,-2.6512,-2.6516,-2.6513,-2.6512,-2.6519,-2.651,-2.6513,-2.6514,-2.6503,-2.651,-2.6505,-2.6502,-2.6499,-2.6505,-2.6493,-2.65,-2.6501,-2.6503,-2.6507,-2.6448,-2.6505,-2.6505,-2.6505,-2.6505,-2.6505,0,-2.6561,-2.6557,-2.6562,-2.656,-2.6564,-2.655,-2.6547,-2.6551,-2.6559,-2.6556,-2.6558,-2.6566,-2.657,-2.6559,-2.6562,-2.657,-2.6561,-2.6571,-2.6569,-2.6568,-2.6518,-2.6513,-2.6578,-2.6578,-2.6578,-2.6578,-2.6578,-2.6578,-2.6588,-2.6601,-2.6595,-2.6608,-2.6604,-2.6612,-2.6613,-2.6613,-2.6611,-2.6621,-2.6625,-2.6619,-2.6614,-2.6617,-2.6621,-2.6618,-2.662,-2.6633,-2.6627,-2.6579,-2.6572,-2.6565,-2.656,-2.6634,-2.6634,-2.6677,-2.6677,-2.6677]},{"header":{"parameterUnit":"m.s-1","parameterCategory":1,"la1":30.2991,"la2":30.254,"lo1":-89.0895,"lo2":-89.0444,"dy":0.0017,"dx":0.0017,"nx":28,"ny":28,"refTime":"2023-10-23T03:00:00:Z","depth":0,"parameterNumber":3,"parameterNumberName":"V-component_of_WINDS"},"data":[0,0,0,0,0,0,0,0,0,0,0,0,0,0,0,0,0,0,0,0,0,0,0,0,0,0,0,0,0,0,0,0,0,0,0,0,0,0,0,0,0,0,0,0,0,0,0,0,0,0,0,0,0,0,0,0,0,0,1.476,1.476,0,1.4751,1.4751,1.4751,1.4797,1.4798,1.48,1.4801,1.4787,1.4785,1.4783,0,0,0,0,0,0,0,0,0,0,0,0,0,1.4812,1.481,1.476,1.476,1.476,1.4751,1.4751,1.4751,1.4797,1.4799,1.48,1.4802,1.4787,1.4785,1.4783,0,0,0,0,0,0,0,0,0,0,0,0,0,1.4795,1.481,1.476,1.4782,1.4783,1.4751,1.4751,1.4751,1.4797,1.4799,1.4801,1.4802,1.4788,1.4785,1.4783,1.4728,0,0,1.4776,1.4775,0,0,0,0,0,0,0,0,1.4795,1.4793,1.4778,1.478,1.4782,1.4778,1.4764,1.4743,1.4796,1.4791,1.4801,1.4803,1.4782,1.478,1.4774,1.4727,1.4727,1.4775,1.4774,1.4773,1.4772,0,0,0,0,0,0,0,1.4797,1.4793,1.4756,1.4778,1.478,1.4791,1.479,1.4761,1.4775,1.4792,1.4795,1.4794,1.4783,1.4776,1.4774,1.4726,1.4775,1.4773,1.4772,1.4771,1.4636,1.4634,0,0,0,0,0,0,1.4796,1.4794,1.4757,1.4756,1.4794,1.4788,1.4788,1.4777,1.4776,1.4778,1.4792,1.4796,1.4779,1.4776,1.4773,1.471,1.4773,1.4771,1.4769,1.4639,1.4636,1.4634,0,0,0,0,0,0,1.4796,1.4792,1.4757,1.4776,1.4772,1.4785,1.4772,1.4776,1.4769,1.4776,1.4778,1.4783,1.4781,1.4777,1.474,1.471,1.477,1.4767,1.4641,1.4638,1.4635,1.4581,0,0,0,0,0,0,1.4798,1.4792,1.4772,1.4775,1.4771,1.4724,1.4771,1.4774,1.4765,1.477,1.4768,1.4769,1.4782,1.4743,1.4737,1.4707,1.4765,1.4644,1.464,1.4636,1.4586,1.4576,1.4569,0,0,0,0,0,1.4799,1.4755,1.477,1.4766,1.4746,1.4722,1.472,1.4737,1.4762,1.4742,1.4747,1.4769,1.4715,1.4739,1.4733,1.4702,1.4646,1.4641,1.4636,1.4589,1.4578,1.4569,0,0,0,0,0,0,1.4744,1.4756,1.4773,1.4729,1.4725,1.473,1.4704,1.4725,1.4712,1.4716,1.4737,1.4736,1.4696,1.4695,1.4722,1.4649,1.4684,1.4678,1.4651,1.464,1.4632,1.4632,1.4763,0,0,0,0,0,1.4728,1.4709,1.4719,1.4679,1.4677,1.4691,1.4681,1.4695,1.4691,1.4689,1.4691,1.4685,1.4667,1.4654,1.4637,1.4587,1.4587,1.4562,1.4554,1.4547,1.4541,1.4515,1.4504,1.4618,1.4618,1.4618,0,0,1.4692,1.4696,1.4682,1.4668,1.4667,1.4646,1.4689,1.4664,1.4649,1.4684,1.465,1.4652,1.4646,1.4603,1.4584,1.4601,1.451,1.4541,1.4535,1.4533,1.4509,1.4498,1.4489,1.4615,1.4615,1.4616,0,0,1.4616,1.4617,1.4585,1.4583,1.4582,1.4592,1.4584,1.4588,1.4591,1.4558,1.4585,1.4566,1.4534,1.4529,1.4523,1.4449,1.4468,1.4443,1.4398,1.4373,1.4364,1.4356,1.4329,1.432,1.4437,1.4437,1.4437,0,1.457,1.4541,1.4565,1.4539,1.4532,1.4568,1.4534,1.4531,1.4523,1.4517,1.4538,1.45,1.4498,1.4455,1.4437,1.4431,1.4422,1.4442,1.4363,1.4356,1.4349,1.4324,1.4314,1.4434,1.4434,1.4434,1.4435,0,1.4486,1.4466,1.444,1.4434,1.4425,1.4395,1.4413,1.4401,1.4417,1.4425,1.4391,1.4391,1.4376,1.4367,1.4381,1.4326,1.4337,1.436,1.4395,1.4334,1.4311,1.4302,1.4429,1.443,1.4431,1.4432,0,0,1.4371,1.4383,1.4372,1.4371,1.4374,1.4358,1.4331,1.4318,1.4307,1.4302,1.4279,1.4252,1.4275,1.4267,1.4282,1.426,1.4202,1.4286,1.4286,1.427,1.4141,1.4123,1.4112,1.4216,1.4214,1.4213,1.4142,0,1.4297,1.4253,1.4274,1.4227,1.4208,1.4243,1.422,1.4218,1.4226,1.421,1.4218,1.42,1.4231,1.4227,1.4207,1.4213,1.4176,1.4219,1.4194,1.4192,1.4193,1.41,1.408,1.4012,1.4133,1.4131,1.413,0,1.4203,1.4197,1.4148,1.4157,1.415,1.4128,1.412,1.4105,1.4105,1.4112,1.4106,1.4126,1.4099,1.4136,1.4099,1.4128,1.4119,1.4121,1.4119,1.4116,1.4156,1.4093,1.3991,1.3981,1.4116,1.4117,1.4118,0,1.4124,1.4104,1.4072,1.407,1.4079,1.4063,1.4066,1.4068,1.406,1.4052,1.4047,1.4036,1.4029,1.402,1.4036,1.4061,1.3997,1.4035,1.4001,1.4001,1.3984,1.3985,1.3879,1.3981,1.3981,1.3981,1.3981,0,1.4038,1.4007,1.4037,1.4018,1.3984,1.401,1.3975,1.3982,1.3984,1.3965,1.3994,1.3976,1.4,1.3984,1.3997,1.3965,1.3961,1.3966,1.3969,1.3963,1.3962,1.3956,1.396,1.3979,1.3979,1.398,1.398,0,1.3943,1.3962,1.3931,1.3943,1.3946,1.392,1.393,1.3913,1.3924,1.3901,1.3897,1.3914,1.3897,1.3913,1.3896,1.3905,1.3862,1.3873,1.3863,1.3866,1.3831,1.3834,1.3716,1.3702,1.3814,1.3813,1.3812,0,1.3885,1.3863,1.3874,1.3866,1.3867,1.3852,1.3846,1.3871,1.3862,1.3862,1.3844,1.383,1.382,1.3792,1.3802,1.379,1.38,1.376,1.3798,1.3792,1.3798,1.3799,1.3797,1.3751,1.3749,1.3748,1.3747,0,1.3782,1.3794,1.3784,1.3778,1.377,1.3765,1.3763,1.3754,1.378,1.3769,1.3754,1.3746,1.3732,1.3717,1.3709,1.3711,1.3733,1.3736,1.3727,1.3719,1.3714,1.3716,1.3841,1.3738,1.3739,1.3739,1.374,1.374,1.3703,1.3686,1.3692,1.368,1.3682,1.368,1.3665,1.3676,1.3665,1.3656,1.3671,1.3652,1.3654,1.3646,1.3645,1.363,1.3647,1.3634,1.3631,1.3627,1.3622,1.3719,1.3629,1.3629,1.3629,1.363,1.363,0,1.3601,1.3608,1.3597,1.3595,1.3586,1.3612,1.3612,1.3602,1.3585,1.3587,1.3578,1.3561,1.3548,1.3559,1.3548,1.3534,1.3544,1.353,1.3531,1.3531,1.3608,1.3616,1.3523,1.3523,1.3523,1.3523,1.3523,1.3523,1.3546,1.3518,1.3531,1.3504,1.3511,1.3494,1.3492,1.3491,1.3492,1.3473,1.3464,1.3472,1.3477,1.3468,1.3457,1.3461,1.3455,1.3437,1.3444,1.3515,1.3525,1.3535,1.3543,1.3436,1.3436,1.3369,1.3368,1.3367]}]]